Regional Weather Roundup
Issued by NWS

Home | Current Version | Previous Version | Graphics & Text | Print | Product List | Glossary On
Versions: 1 2 3 4 5 6 7 8 9 10 11 12 13 14 15 16 17 18 19 20 21 22 23 24 25 26 27 28 29 30 31 32 33 34 35 36 37 38 39 40 41 42 43 44 45 46 47 48 49 50
000
ASUS43 KBIS 240610
RWRND

NORTH DAKOTA REGIONAL WEATHER ROUNDUP
NATIONAL WEATHER SERVICE BISMARCK ND
1200 AM CST FRI FEB 24 2017

NOTE: "FAIR" INDICATES FEW OR NO CLOUDS BELOW 12,000 FEET WITH NO
SIGNIFICANT WEATHER AND/OR OBSTRUCTIONS TO VISIBILITY.


NDZ001>003-009>011-017-240700-
NORTHWEST NORTH DAKOTA

CITY           SKY/WX    TMP DP  RH WIND       PRES   REMARKS
WILLISTON      FAIR      11  10  96 CALM      30.16S
6HR MIN TEMP:  10; 6HR MAX TEMP:  25;

MINOT          FAIR      19  14  81 SW7       30.12F WCI  10
MINOT AFB      CLOUDY    18  15  86 W7        30.12F WCI   9
$$

NDZ018>021-031>035-040>046-240700-
SOUTHWEST NORTH DAKOTA

CITY           SKY/WX    TMP DP  RH WIND       PRES   REMARKS
BISMARCK       FAIR      19  13  77 N7        30.15R WCI  10
6HR MIN TEMP:  19; 6HR MAX TEMP:  27;

DICKINSON      FAIR      13   8  81 N5        30.09R WCI   5
GARRISON         N/A     10   6  84 NW6       30.13R WCI   0
6HR MIN TEMP:  10; 6HR MAX TEMP:  23;

HETTINGER ARPT CLOUDY    17  12  80 N9        30.09R WCI   6
$$

NDZ004>008-012>016-024-026-027-054-240700-
NORTHEAST NORTH DAKOTA

CITY           SKY/WX    TMP DP  RH WIND       PRES   REMARKS
GRAND FORKS    CLEAR     18  10  71 N5        30.15R WCI  11
GRND FRKS AFB  CLEAR     16  13  87 NE6       30.15R WCI   7
DEVILS LAKE    FAIR      14  12  92 NW7       30.11S WCI   4
$$

NDZ022-023-025-028>030-036>039-047>053-240700-
SOUTHEAST NORTH DAKOTA

CITY           SKY/WX    TMP DP  RH WIND       PRES   REMARKS
FARGO          CLOUDY    22  13  68 N17       30.11R WCI   8
6HR MIN TEMP:  22; 6HR MAX TEMP:  26;

JAMESTOWN      FAIR      20  16  84 N8        30.10S WCI  10
$$




USA.gov is the U.S. government's official web portal to all federal, state and local government web resources and services.